Seattle, WA
on Thursday, January 10, 2013

Thursday
Previous Day Next Day
Daily Summary
 ActualAverageRecord
Temperature
Mean Temperature °F 42°F  
Max Temperature 38°F 47°F 59°F (1981)
Min Temperature 31°F 37°F 12°F (1949)
Degree Days
Heating Degree Days 30 23  
Month to date heating degree days 245 238  
Since 1 July heating degree days 1996 2176  
Cooling Degree Days 0 0  
Month to date cooling degree days 0 0  
Year to date cooling degree days 0 0  
Moisture
Dew Point 32°F   
Average Humidity 86    
Maximum Humidity 96    
Minimum Humidity 76    
Precipitation
Precipitation 0.01 in 0.20 in 0.94 in (2006)
Month to date precipitation 2.71 1.89  
Year to date precipitation 2.71 1.89  
Snow
Snow T in in 3.00 in (2007)
Month to date snowfall T  
Since 1 July snowfall 0.6  
Snow Depth 0.00 in   
Wind
Wind Speed 5 mph   
Max Wind Speed 10 mph   
Max Gust Speed 14 mph   
Visibility 8 miles   
Events Fog , Rain , Snow   

Key: T is trace of precipitation, MM is missing value
Source: NWS Daily Summary
Time(PST)TemperatureDew PointHumidity Pressure Visibility Wind DirectionWind SpeedGust SpeedPrecipitationEvents Conditions
12:16 AM 37.4°F 32.0°F 81% 29.94 in 10.0 miles South 4.6 mph - N/A   Overcast
12:28 AM 37.4°F 32.0°F 81% 29.94 in 10.0 miles South 4.6 mph - N/A   Overcast
12:53 AM 37.0°F 33.1°F 86% 29.97 in 10.0 miles SSW 6.9 mph - N/A   Overcast
1:13 AM 37.4°F 32.0°F 81% 29.94 in 10.0 miles South 8.1 mph - N/A   Overcast
1:53 AM 37.4°F 33.8°F 87% 29.96 in 10.0 miles SSW 6.9 mph - N/A   Overcast
2:16 AM 37.4°F 32.0°F 81% 29.96 in 10.0 miles South 6.9 mph - N/A   Overcast
2:53 AM 37.0°F 30.9°F 79% 30.00 in 10.0 miles SSW 5.8 mph - N/A   Overcast
3:53 AM 36.0°F 32.0°F 86% 30.01 in 10.0 miles SE 3.5 mph - N/A   Overcast
4:30 AM 35.6°F 30.2°F 81% 29.98 in 10.0 miles West 8.1 mph - N/A   Overcast
4:53 AM 36.0°F 30.9°F 82% 30.01 in 10.0 miles WSW 4.6 mph - N/A   Overcast
5:53 AM 36.0°F 30.9°F 82% 30.02 in 10.0 miles West 3.5 mph - N/A   Overcast
6:18 AM 35.6°F 32.0°F 87% 30.01 in 10.0 miles Calm Calm - N/A   Overcast
6:53 AM 36.0°F 32.0°F 86% 30.05 in 10.0 miles WSW 3.5 mph - N/A   Overcast
7:53 AM 35.1°F 32.0°F 89% 30.08 in 10.0 miles WNW 4.6 mph - N/A   Overcast
8:39 AM 33.8°F 30.2°F 87% 30.06 in 1.2 miles West 5.8 mph - N/A   Overcast
8:53 AM 34.0°F 32.0°F 92% 30.09 in 0.8 miles West 5.8 mph - N/A   Overcast
9:14 AM 33.8°F 32.0°F 93% 30.07 in 2.0 miles WNW 5.8 mph - N/A   Overcast
9:53 AM 35.1°F 32.0°F 89% 30.11 in 8.0 miles NW 4.6 mph - N/A   Overcast
10:27 AM 35.6°F 32.0°F 87% 30.08 in 7.0 miles WSW 6.9 mph - 0.00 in Snow Light Snow
10:39 AM 35.6°F 32.0°F 87% 30.08 in 8.0 miles WSW 6.9 mph - 0.00 in   Overcast
10:53 AM 36.0°F 32.0°F 86% 30.11 in 10.0 miles West 6.9 mph - 0.00 in   Mostly Cloudy
11:53 AM 37.0°F 32.0°F 82% 30.09 in 10.0 miles West 8.1 mph - N/A   Overcast
12:19 PM 37.4°F 32.0°F 81% 30.05 in 10.0 miles West 6.9 mph - N/A   Mostly Cloudy
12:53 PM 37.0°F 32.0°F 82% 30.08 in 10.0 miles West 5.8 mph - N/A   Overcast
1:53 PM 37.0°F 32.0°F 82% 30.09 in 10.0 miles West 4.6 mph - 0.00 in Rain Light Rain
2:13 PM 37.4°F 32.0°F 81% 30.07 in 10.0 miles Calm Calm - 0.00 in Rain Light Rain
2:19 PM 37.4°F 33.8°F 87% 30.07 in 10.0 miles West 4.6 mph - 0.00 in Rain Light Rain
2:35 PM 37.4°F 33.8°F 87% 30.07 in 10.0 miles West 4.6 mph - 0.01 in   Overcast
2:53 PM 37.9°F 33.1°F 83% 30.10 in 10.0 miles WNW 5.8 mph - 0.01 in   Overcast
3:31 PM 37.4°F 32.0°F 81% 30.07 in 10.0 miles WNW 6.9 mph - 0.00 in Rain Light Rain
3:46 PM 37.4°F 32.0°F 81% 30.08 in 10.0 miles NNW 6.9 mph - 0.00 in Rain Light Rain
3:53 PM 37.0°F 32.0°F 82% 30.11 in 10.0 miles West 4.6 mph - 0.00 in Rain Light Rain
4:53 PM 37.0°F 32.0°F 82% 30.11 in 10.0 miles West 4.6 mph - 0.00 in   Overcast
5:13 PM 37.4°F 33.8°F 87% 30.08 in 10.0 miles West 3.5 mph - N/A   Overcast
5:53 PM 37.0°F 32.0°F 82% 30.10 in 10.0 miles West 3.5 mph - N/A   Overcast
6:21 PM 37.4°F 32.0°F 81% 30.08 in 10.0 miles West 3.5 mph - N/A   Overcast
6:53 PM 37.0°F 32.0°F 82% 30.11 in 10.0 miles Calm Calm - N/A   Overcast
7:53 PM 36.0°F 30.9°F 82% 30.12 in 10.0 miles Calm Calm - N/A   Mostly Cloudy
8:53 PM 35.1°F 30.9°F 85% 30.12 in 10.0 miles North 3.5 mph - N/A   Scattered Clouds
9:53 PM 34.0°F 30.0°F 85% 30.13 in 10.0 miles NNE 5.8 mph - N/A   Mostly Cloudy
10:51 PM 32.0°F 30.2°F 93% 30.10 in 1.0 miles ESE 5.8 mph - N/A Fog Patches of Fog
10:53 PM 32.0°F 30.9°F 96% 30.14 in 1.0 miles ESE 4.6 mph - N/A Fog Patches of Fog
10:56 PM 32.0°F 30.2°F 93% 30.10 in 0.2 miles SE 4.6 mph - N/A Fog Fog
11:15 PM 30.2°F 28.4°F 93% 30.11 in 0.5 miles ESE 6.9 mph - N/A Fog Light Freezing Fog
11:31 PM 32.0°F 30.2°F 93% 30.11 in 0.2 miles SE 4.6 mph - N/A Fog Fog
11:38 PM 32.0°F 30.2°F 93% 30.11 in 0.2 miles SE 4.6 mph - N/A Fog Fog
11:53 PM 32.0°F 30.0°F 92% 30.14 in 0.2 miles SSE 4.6 mph - N/A Fog Fog
Moon Phase
Jan. 10 Jan. 11 Jan. 18 Jan. 26 Feb. 03
Sunrise:07:54 AM (PST) Moon Rise:06:39 AM (PST)1/10
Sunset:04:39 PM (PST) Moon Set:03:54 PM (PST)1/10

Copyright © 2014 The Weather Underground, Inc.